Regional Weather Roundup
Issued by NWS

Home | Current Version | Previous Version | Text Only | Print | Product List | Glossary On
Versions: 1 2 3 4 5 6 7 8 9 10 11 12 13 14 15 16 17 18 19 20 21 22 23 24 25 26 27 28 29 30 31 32 33 34 35 36 37 38 39 40 41 42 43 44 45 46 47 48 49 50
000
ASUS43 KDTX 272310
RWRMI
MICHIGAN HOURLY REGIONAL WEATHER ROUNDUP
NATIONAL WEATHER SERVICE DETROIT/PONTIAC MI
700 PM EDT MON JUL 27 2015

NOTE: "FAIR" INDICATES FEW OR NO CLOUDS BELOW 12,000 FEET WITH NO
SIGNIFICANT WEATHER AND/OR OBSTRUCTION TO VISIBILITY.

MIZ047>049-052>055-059>063-066>070-074>076-081>083-280000-
SOUTHEAST LOWER MICHIGAN

CITY           SKY/WX    TMP DP  RH WIND       PRES   REMARKS
ADRIAN         MOSUNNY   84  61  45 SE8       30.01F
ALMA           SUNNY     87  59  38 SW3       30.02S
ANN ARBOR      SUNNY     85  63  47 CALM      30.00F
BAD AXE        SUNNY     86  64  48 W5        30.01F
CARO           SUNNY     87  63  44 CALM      30.00S
DETROIT CITY   SUNNY     85  62  46 E7        30.00F
DETROIT        MOSUNNY   87  61  41 E6        30.00F
FLINT          SUNNY     89  59  36 W3        30.01F
GROSSE ILE     SUNNY     82  70  65 S6        29.99F
HILLSDALE      SUNNY     83  61  45 E5        30.02F
HOWELL         SUNNY     86  56  35 CALM      30.01F

CITY           SKY/WX    TMP DP  RH WIND       PRES   REMARKS
JACKSON        SUNNY     84  60  44 E7        30.01F
LAMBERTVILLE   SUNNY     84  60  43 CALM      30.00F
LANSING        MOSUNNY   86  63  45 NE6       30.01F
LAPEER         FAIR      86  59  40 CALM      30.02F
MASON          MOSUNNY   83  60  44 NE3       30.01F
MONROE         SUNNY     82  63  51 E5        29.99F
MT. CLEMENS    MOSUNNY   86  63  46 S5        29.99F
PONTIAC        MOSUNNY   88  54  31 CALM      30.00F
PORT HOPE        N/A     77  70  79 E8        29.99F
PORT HURON     SUNNY     84  61  45 NE5       30.01S
TRI CITIES     SUNNY     88  63  43 SW5       30.01F
MIDLAND        FAIR      88  58  36 SW7       29.99F
TROY           SUNNY     89  54  29 E6        30.02F
SAGINAW HB     SUNNY     88  59  37 CALM      30.00S
$$
MIZ043>046-050>051-056>058-064>065-071>073-077>080-280000-
SOUTHWEST LOWER MICHIGAN

CITY           SKY/WX    TMP DP  RH WIND       PRES   REMARKS
BATTLE CREEK   SUNNY     87  63  44 VRB7      30.02S
BENTON HARBOR  SUNNY     82  66  58 VRB5      29.98F
BIG RAPIDS     MOSUNNY   86  56  36 CALM      30.01F
COLDWATER      SUNNY     82  60  48 E5        30.01S
FREMONT        FAIR      87  53  31 S3        30.00F
HOLLAND        SUNNY     88  62  41 E6        30.00F
GRAND RAPIDS   MOSUNNY   86  60  41 SE7       30.00F
IONIA          FAIR      85  64  49 E5        30.00F
KALAMAZOO      SUNNY     87  63  44 CALM      30.01F
LUDINGTON      PTSUNNY   81  62  52 NW7       30.02F
MARSHALL       SUNNY     85  60  42 SE3       30.00F
MOUNT PLEASANT SUNNY     88  59  36 S6        30.00F
MUSKEGON       PTSUNNY   85  63  47 NW6       30.00F
SOUTH HAVEN    SUNNY     82  63  52 N6        29.99F
$$
MIZ016>042-280000-
NORTHERN LOWER MICHIGAN

CITY           SKY/WX    TMP DP  RH WIND       PRES   REMARKS
ALPENA         SUNNY     85  61  44 SE6       30.01S
BEAVER ISLAND  SUNNY     79  63  57 SW7       30.02S
BELLAIRE       SUNNY     84  59  41 NW3       30.00F
CADILLAC       MOSUNNY   87  54  32 CALM      30.03S
CHARLEVOIX     SUNNY     80  62  52 W10       30.04F
FRANKFORT      SUNNY     85  59  41 NW5       30.01F
GAYLORD        SUNNY     88  57  34 VRB6      30.03S
GRAYLING       SUNNY     89  58  35 NW10      30.02F
HARBOR SPRINGS SUNNY     74  68  83 SW8       30.01S
HOUGHTON LAKE  SUNNY     89  55  31 SW6       30.01F
MANISTEE       MOSUNNY   81  57  44 NW8       30.02F
OSCODA         SUNNY     79  67  66 E14       30.00S
PELLSTON       SUNNY     89  55  31 NW9       30.01S
ROGERS CITY    SUNNY     85  54  33 CALM      30.01S
TRAVERSE CITY  MOSUNNY   86  61  42 N8        29.99F
$$
MIZ007>008-015-280000-
EASTERN UPPER MICHIGAN

CITY           SKY/WX    TMP DP  RH WIND       PRES   REMARKS
KINROSS        SUNNY     88  63  42 NW7       29.99S
MACKINAC ISLAN SUNNY     82  62  50 W8        30.00F
MUNISING         N/A     79  68  69 NE3       29.98S
$$
MIZ004>006-011>014-085-280000-
CENTRAL UPPER MICHIGAN

CITY           SKY/WX    TMP DP  RH WIND       PRES   REMARKS
MANISTIQUE     SUNNY     77  63  61 SW7       29.99F
ESCANABA       SUNNY     84  63  48 S10       29.98S
MENOMINEE      SUNNY     84  61  45 SW8       29.99F
SAWYER-GWINN   MOSUNNY   90  59  35 SW13      30.00F
$$
MIZ001>003-009>011-084-280000-
WESTERN UPPER MICHIGAN

CITY           SKY/WX    TMP DP  RH WIND       PRES   REMARKS
IRON MOUNTAIN  SUNNY     87  60  40 S9        29.99F
HOUGHTON       SUNNY     83  68  60 E7        29.97F
COPPER HARBOR    N/A     72  64  76 CALM      29.97S
IRONWOOD       SUNNY     88  55  33 SE7         N/A
$$

ABBREVIATIONS USED IN REMARKS
   TC - TEMPERATURE IN CELSIUS
  WCI - WIND CHILL INDEX
   HX - HEAT INDEX
  VSB - VISIBILITY



USA.gov is the U.S. government's official web portal to all federal, state and local government web resources and services.